Regional Weather Roundup
Issued by NWS

Home | Current Version | Previous Version | Graphics & Text | Print | Product List | Glossary On
Versions: 1 2 3 4 5 6 7 8 9 10 11 12 13 14 15 16 17 18 19 20 21 22 23 24 25 26 27 28 29 30 31 32 33 34 35 36 37 38 39 40 41 42 43 44 45 46 47 48 49 50
080
ASUS45 KSLC 230310
RWRUT

UTAH REGIONAL WEATHER ROUNDUP
NATIONAL WEATHER SERVICE SALT LAKE CITY UT
900 PM MDT MON AUG 22 2016

UTZ001>011-023>025-230400-

NORTHERN UTAH

CITY           SKY/WX    TMP DP  RH WIND       PRES   REMARKS
BRIGHAM CITY     N/A     80  10   7 SE7       29.94R
HILL AFB       CLOUDY    78  26  14 NW7       29.96R
LOGAN          PTCLDY    75  17  11 NE5       29.95R
OGDEN          MOCLDY    76  25  15 NW7       29.92R
PROVO AIRPORT  MOCLDY    73  43  33 E3        29.96R
SALT LAKE CITY MOCLDY    82  29  14 SE8       29.91R
VERNAL         PTCLDY    71  40  32 SW9       30.05R
WENDOVER       CLOUDY    84  27  12 NW9       29.91R
HEBER CITY     PTCLDY    61  36  39 SE5       30.02R
WEST JORDAN    PTCLDY    76  32  19 SW6       29.96R

$$

UTZ012>022-026-027-230400-

SOUTHERN/CENTRAL UTAH

CITY           SKY/WX    TMP DP  RH WIND       PRES   REMARKS
BLANDING       MOCLDY    65  47  50 N20G29    30.22R
BRYCE CANYON   LGT RAIN  54  46  74 NW8       30.29S
CEDAR CITY     CLOUDY    70  42  36 SE15      30.12R
DELTA          CLOUDY    73  37  27 S17       30.02R
MILFORD        LGT RAIN  61  54  77 E18       30.13R
MOAB/CYNLANDS  LGT RAIN  72  55  55 SE15G22   30.03R
PRICE          MOCLDY    72  34  24 S3        30.09R
ST GEORGE      PTCLDY    81  52  36 E9        29.98R

$$

REGIONAL REPORTS     COLORADO/ARIZONA

CITY           SKY/WX    TMP DP  RH WIND       PRES   REMARKS
CRAIG, CO      CLOUDY    62  44  51 S3        30.11R
GRAND JUNCTION CLOUDY    66  52  60 NW9       30.11R
RIFLE          CLOUDY    65  48  54 SE13      30.12R
MONTROSE       CLEAR     65  44  46 E12       30.17R
CORTEZ         CLEAR     59  49  69 S6        30.15R
PAGE, AZ       MOCLDY    77  46  33 W6        30.04R
GRAND CANYON   MOCLDY    62  47  57 SW7       30.23R
KINGMAN          N/A    N/A N/A N/A MISG        N/A  THUNDER
FLAGSTAFF      CLOUDY    58  49  72 CALM      30.25R

$$

REGIONAL REPORTS    NEVADA/IDAHO/WYOMING

CITY           SKY/WX    TMP DP  RH WIND       PRES   REMARKS
LAS VEGAS, NV  CLOUDY    86  45  23 N24G41    29.84R THUNDER
ELY            CLOUDY    59  44  57 S13       30.14R
ELKO           CLEAR     78  21  12 NW7       30.00R
POCATELLO, ID  CLEAR     69  16  13 S16       29.96R
BURLEY         MOCLDY    63  36  36 VRB6      29.94R
EVANSTON, WY   CLOUDY    67  26  21 W9        30.14R
ROCK SPRINGS   CLOUDY    70  21  15 W10       30.07R

$$




USA.gov is the U.S. government's official web portal to all federal, state and local government web resources and services.